User: anonymous   Login
Location: Santa Teresa Spring
(37.2333°N, 121.7000°W)
Time: 06:30:05
(UTC-08:00)
Language:

Cosmos 1633 - Orbit

View from above orbital plane
View from above orbital plane
View from above satellite
View from above satellite

Ground track
Ground track

The orbit data is extracted from the following two-line orbital elements,

1 15592U 85020A   14326.11397100  .00009873  00000-0  44757-3 0  6045
2 15592 082.5390 175.1875 0015125 239.5088 274.7063 15.20608271621262
Epoch (UTC): 22 November 2014 02:44:07
Eccentricity: 0.0015125
inclination: 82.5390°
perigee height: 493 km
apogee height: 514 km
right ascension of ascending node: 175.1875°
argument of perigee: 239.5088°
revolutions per day: 15.20608271
mean anomaly at epoch: 274.7063°
orbit number at epoch: 62126

The dashed part of the orbit path shows where the satellite is in the earth's shadow,  

DLR